Início
Estação Aeroclube
Estação São Gotardo
Temperatura
Umidade
Pressão Atmosférica
Vento
Precipitação
Configuração do gráfico
Período
v
     
 
v
   
Aplicar
Linhas e valores
etiquetasséries
The Temperatura média no período chart showing Mínima series, Máxima series, Média series, Sensação térmica series.
   
Hora
Temperatura média
Temperatura máxima
Temperatura mínima
Sensação térmica
Data: 18/07/2019
 02:00:0010,7210,7810,689,59
 01:00:0010,8411,1210,759,76
 00:00:0011,3811,911,0410,62
Data: 17/07/2019
 23:00:0011,9312,2511,7210,96
 22:00:0012,1512,3611,7210,98
 21:00:0011,7911,9611,6911,32
 20:00:0011,5311,9311,0910,96
 19:00:0011,3611,4811,211,12
 18:00:0011,7512,2611,3711,11
 17:00:0012,9714,6112,1212,26
 16:00:0015,8317,8214,1215,92
 15:00:0017,0517,5316,5717,22
 14:00:0016,6917,216,2316,68
 13:00:0016,0916,9815,315,76
 12:00:0015,1815,8614,5114,8
 11:00:0014,2315,3113,5914,01
 10:00:0013,2114,0412,2212,51
 09:00:0011,7112,4610,2510,67
 08:00:009,3310,657,847,41
 07:00:007,588,087,326,45
 06:00:007,487,577,395,95
 05:00:007,557,777,176,05
 04:00:007,427,787,126,05
 03:00:007,537,787,285,66
 02:00:007,47,487,335,23
 01:00:007,397,587,265,25
 00:00:007,487,587,325,64
Data: 16/07/2019 (Continua na próxima página)
 23:00:007,627,747,555,17
 22:00:007,757,827,585,48
 21:00:007,727,97,585,45
 20:00:008,058,357,786,21
 19:00:007,938,357,786,81
 18:00:008,649,498,157,09
 17:00:009,6110,269,278,27
 16:00:0011,611,9710,810,29
 15:00:0011,8412,1711,3310,69
 14:00:0011,5712,0811,2410,04
 13:00:0011,0211,8610,259,81
 12:00:0010,0611,069,368,09
 11:00:009,1710,178,637
 10:00:008,379,047,56,29
 09:00:007,167,746,195,35
 08:00:005,546,444,463,3
 07:00:004,274,574,071,35
 06:00:003,874,253,432,12
 05:00:003,884,463,432,83
 04:00:004,815,54,213,1
Página 1 de 4 (179 itens)
Anterior
[1]
2
3
4
Próxima